BEIDOU-2 IGSO-1

Last updated on Tue Dec 16 2025 00:02:49 GMT+0000 (Coordinated Universal Time)

1 36828U 10036A 25348.90163916 -.00000024 00000+0 00000+0 0 9999 2 36828 54.2866 164.6279 0051256 215.8888 135.7931 1.00275796 56247
UTC large
Height (km)
Speed (km/s)
/
Latitude / Longitude
Inclination (degrees)
Orbital Period (minutes)
Azimuth
Elevation
Range (km)
Doppler Factor

Next 0 passes for location: London (51.5072 / 0.1276)

Sorry there are no passes over London.